| time (UTC) | temp C | wind direction | speed KPH | gust KPH | rain 1hr cm | rain 24hr cm | rain mn cm | humidity % | barometer mb |
| 20260507082135 | 11 | 149 | 3.2 | 8.0 | 0.00 | 0.84 | 0.00 | 97 | 1004.9 |
| 20260507081633 | 11 | 179 | 3.2 | 6.4 | 0.00 | 0.84 | 0.00 | 97 | 1004.8 |
| 20260507081134 | 11 | 151 | 1.6 | 8.0 | 0.00 | 0.84 | 0.00 | 97 | 1004.9 |
| 20260507080631 | 12 | 199 | 1.6 | 8.0 | 0.00 | 0.84 | 0.00 | 97 | 1004.8 |
| 20260507080130 | 12 | 172 | 1.6 | 8.0 | 0.00 | 0.84 | 0.00 | 97 | 1004.8 |
| 20260507075622 | 12 | 161 | 0.0 | 6.4 | 0.00 | 0.84 | 0.00 | 97 | 1004.9 |
| 20260507075124 | 12 | 161 | 1.6 | 6.4 | 0.00 | 0.84 | 0.00 | 97 | 1004.9 |
| 20260507074608 | 12 | 164 | 1.6 | 6.4 | 0.00 | 0.84 | 0.00 | 97 | 1004.9 |
| 20260507074051 | 12 | 157 | 1.6 | 6.4 | 0.00 | 0.84 | 0.00 | 97 | 1004.9 |
| 20260507073553 | 12 | 170 | 1.6 | 6.4 | 0.00 | 0.84 | 0.00 | 97 | 1005.0 |
| 20260507073034 | 12 | 199 | 1.6 | 6.4 | 0.00 | 0.84 | 0.00 | 97 | 1005.2 |
| 20260507072536 | 12 | 159 | 1.6 | 6.4 | 0.00 | 0.84 | 0.00 | 97 | 1005.2 |
| 20260507072029 | 12 | 200 | 1.6 | 6.4 | 0.00 | 0.84 | 0.00 | 97 | 1005.4 |
| 20260507071530 | 12 | 169 | 1.6 | 8.0 | 0.00 | 0.84 | 0.00 | 97 | 1005.4 |
| 20260507071022 | 12 | 169 | 1.6 | 8.0 | 0.00 | 0.84 | 0.00 | 97 | 1005.7 |
| 20260507070515 | 12 | 169 | 0.0 | 6.4 | 0.00 | 0.84 | 0.00 | 97 | 1005.8 |
| 20260507070014 | 12 | 123 | 0.0 | 1.6 | 0.00 | 0.84 | 0.00 | 97 | 1005.5 |
| 20260507065507 | 12 | 84 | 0.0 | 1.6 | 0.00 | 0.84 | 0.00 | 97 | 1005.2 |
| 20260507065003 | 12 | 84 | 0.0 | 3.2 | 0.00 | 0.84 | 0.00 | 97 | 1005.3 |
| 20260507064503 | 12 | 84 | 1.6 | 6.4 | 0.00 | 0.84 | 0.00 | 97 | 1005.1 |
| 20260507063957 | 12 | 177 | 1.6 | 6.4 | 0.00 | 0.84 | 0.00 | 97 | 1005.5 |
| 20260507063457 | 12 | 254 | 1.6 | 6.4 | 0.00 | 0.84 | 0.00 | 97 | 1005.5 |
| 20260507062950 | 12 | 230 | 1.6 | 8.0 | 0.00 | 0.84 | 0.00 | 97 | 1005.5 |
| 20260507062449 | 12 | 190 | 3.2 | 8.0 | 0.00 | 0.84 | 0.00 | 97 | 1005.5 |
| 20260507061946 | 12 | 190 | 3.2 | 11.3 | 0.00 | 0.84 | 0.00 | 97 | 1005.6 |
| 20260507061444 | 12 | 257 | 3.2 | 11.3 | 0.00 | 0.84 | 0.00 | 97 | 1005.6 |
| 20260507060947 | 12 | 259 | 3.2 | 9.7 | 0.00 | 0.84 | 0.00 | 97 | 1005.6 |
| 20260507060443 | 12 | 219 | 4.8 | 14.5 | 0.00 | 0.84 | 0.00 | 97 | 1005.5 |
| 20260507055943 | 12 | 235 | 4.8 | 16.1 | 0.00 | 0.84 | 0.00 | 97 | 1005.5 |
| 20260507055442 | 12 | 171 | 4.8 | 16.1 | 0.00 | 0.84 | 0.00 | 97 | 1005.6 |
| 20260507054943 | 12 | 203 | 4.8 | 12.9 | 0.00 | 0.84 | 0.00 | 97 | 1005.8 |
| 20260507054432 | 12 | 230 | 4.8 | 16.1 | 0.00 | 0.84 | 0.00 | 97 | 1005.9 |
| 20260507053931 | 12 | 194 | 3.2 | 16.1 | 0.00 | 0.84 | 0.00 | 97 | 1006.0 |
| 20260507053430 | 12 | 196 | 4.8 | 16.1 | 0.00 | 0.84 | 0.00 | 97 | 1006.0 |
| 20260507052930 | 12 | 98 | 4.8 | 16.1 | 0.00 | 0.84 | 0.00 | 97 | 1006.2 |
| 20260507052431 | 12 | 246 | 4.8 | 16.1 | 0.00 | 0.84 | 0.00 | 97 | 1006.3 |
| 20260507051929 | 12 | 208 | 4.8 | 16.1 | 0.00 | 0.84 | 0.00 | 97 | 1006.5 |
| 20260507051428 | 12 | 245 | 6.4 | 16.1 | 0.00 | 0.84 | 0.00 | 97 | 1006.5 |
| 20260507050928 | 13 | 157 | 4.8 | 14.5 | 0.00 | 0.84 | 0.00 | 97 | 1006.5 |
| 20260507050426 | 13 | 227 | 4.8 | 12.9 | 0.00 | 0.84 | 0.00 | 97 | 1006.4 |
| 20260507045926 | 13 | 0 | 4.8 | 12.9 | 0.00 | 0.84 | 0.00 | 97 | 1006.4 |
| 20260507045427 | 13 | 279 | 4.8 | 12.9 | 0.00 | 0.84 | 0.00 | 97 | 1006.4 |
| 20260507044925 | 13 | 294 | 4.8 | 17.7 | 0.00 | 0.84 | 0.00 | 97 | 1006.3 |
| 20260507044425 | 13 | 207 | 6.4 | 17.7 | 0.00 | 0.84 | 0.00 | 97 | 1006.3 |
| 20260507043924 | 13 | 119 | 4.8 | 17.7 | 0.00 | 0.84 | 0.00 | 97 | 1006.4 |
| 20260507043426 | 13 | 263 | 4.8 | 16.1 | 0.00 | 0.84 | 0.00 | 97 | 1006.4 |
| 20260507042926 | 13 | 204 | 4.8 | 14.5 | 0.00 | 0.84 | 0.00 | 97 | 1006.5 |
| 20260507042424 | 13 | 253 | 4.8 | 14.5 | 0.00 | 0.84 | 0.00 | 97 | 1006.6 |
| 20260507041924 | 13 | 221 | 4.8 | 14.5 | 0.00 | 0.84 | 0.00 | 97 | 1006.7 |
| 20260507041424 | 13 | 247 | 4.8 | 16.1 | 0.00 | 0.84 | 0.00 | 97 | 1006.8 |
| 20260507040925 | 13 | 305 | 6.4 | 16.1 | 0.00 | 0.84 | 0.00 | 97 | 1006.7 |
| 20260507040425 | 13 | 232 | 6.4 | 20.9 | 0.00 | 0.84 | 0.00 | 97 | 1006.8 |
| 20260507035923 | 13 | 199 | 6.4 | 20.9 | 0.00 | 0.84 | 0.84 | 97 | 1006.6 |
| 20260507035422 | 13 | 231 | 6.4 | 17.7 | 0.00 | 0.84 | 0.84 | 97 | 1006.7 |
| 20260507034921 | 13 | 157 | 6.4 | 17.7 | 0.00 | 0.84 | 0.84 | 97 | 1006.7 |
| 20260507034423 | 13 | 180 | 6.4 | 17.7 | 0.00 | 0.84 | 0.84 | 97 | 1006.7 |
| 20260507033925 | 13 | 152 | 6.4 | 19.3 | 0.00 | 0.84 | 0.84 | 97 | 1006.8 |
| 20260507033419 | 13 | 203 | 6.4 | 19.3 | 0.00 | 0.84 | 0.84 | 97 | 1006.9 |
| 20260507032920 | 13 | 293 | 8.0 | 22.5 | 0.00 | 0.84 | 0.84 | 97 | 1006.7 |
| 20260507032416 | 13 | 222 | 8.0 | 22.5 | 0.00 | 0.84 | 0.84 | 97 | 1006.6 |
| 20260507031917 | 13 | 271 | 8.0 | 20.9 | 0.00 | 0.84 | 0.84 | 97 | 1006.4 |
| 20260507031420 | 13 | 159 | 6.4 | 20.9 | 0.00 | 0.84 | 0.84 | 97 | 1006.5 |
| 20260507030917 | 13 | 166 | 6.4 | 19.3 | 0.00 | 0.84 | 0.84 | 97 | 1006.5 |
| 20260507030418 | 13 | 256 | 6.4 | 19.3 | 0.00 | 0.84 | 0.84 | 97 | 1006.4 |
| 20260507025915 | 13 | 158 | 6.4 | 17.7 | 0.00 | 0.84 | 0.84 | 97 | 1006.5 |
| 20260507025414 | 13 | 286 | 8.0 | 17.7 | 0.00 | 0.84 | 0.84 | 97 | 1006.6 |
| 20260507024915 | 13 | 162 | 8.0 | 24.1 | 0.00 | 0.84 | 0.84 | 97 | 1006.7 |
| 20260507024412 | 13 | 188 | 9.7 | 25.7 | 0.00 | 0.84 | 0.84 | 97 | 1006.9 |
| 20260507023913 | 13 | 204 | 8.0 | 25.7 | 0.00 | 0.84 | 0.84 | 97 | 1007.2 |
| 20260507023412 | 13 | 228 | 8.0 | 19.3 | 0.00 | 0.84 | 0.84 | 97 | 1007.2 |
| 20260507022912 | 13 | 259 | 8.0 | 17.7 | 0.00 | 0.84 | 0.84 | 97 | 1007.2 |
| 20260507022409 | 13 | 196 | 6.4 | 17.7 | 0.00 | 0.84 | 0.84 | 96 | 1007.3 |
| 20260507021910 | 13 | 213 | 6.4 | 17.7 | 0.00 | 0.84 | 0.84 | 96 | 1007.3 |
| 20260507021409 | 13 | 188 | 8.0 | 19.3 | 0.03 | 0.84 | 0.84 | 96 | 1007.4 |
| 20260507020909 | 13 | 155 | 6.4 | 19.3 | 0.03 | 0.84 | 0.84 | 97 | 1007.4 |
| 20260507020410 | 13 | 236 | 6.4 | 20.9 | 0.03 | 0.84 | 0.84 | 97 | 1007.3 |
| 20260507015910 | 13 | 196 | 6.4 | 22.5 | 0.03 | 0.84 | 0.84 | 97 | 1007.4 |
| 20260507015411 | 13 | 208 | 8.0 | 22.5 | 0.03 | 0.84 | 0.84 | 97 | 1007.6 |
| 20260507014907 | 13 | 223 | 8.0 | 17.7 | 0.05 | 0.84 | 0.84 | 97 | 1007.6 |
| 20260507014410 | 13 | 186 | 8.0 | 19.3 | 0.08 | 0.84 | 0.84 | 97 | 1007.7 |
| 20260507013743 | 13 | 182 | 8.0 | 22.5 | 0.13 | 0.84 | 0.84 | 96 | 1007.8 |
| 20260507013242 | 13 | 228 | 8.0 | 22.5 | 0.18 | 0.84 | 0.84 | 96 | 1007.7 |
| 20260507012741 | 13 | 158 | 8.0 | 24.1 | 0.25 | 0.84 | 0.84 | 96 | 1007.6 |
| 20260507012241 | 13 | 228 | 8.0 | 27.4 | 0.33 | 0.84 | 0.84 | 96 | 1007.5 |
| 20260507011740 | 13 | 203 | 8.0 | 27.4 | 0.41 | 0.84 | 0.84 | 97 | 1007.8 |
| 20260507011241 | 13 | 183 | 8.0 | 24.1 | 0.43 | 0.81 | 0.81 | 96 | 1007.7 |
| 20260507010739 | 13 | 116 | 8.0 | 24.1 | 0.48 | 0.81 | 0.81 | 97 | 1007.8 |
| 20260507010238 | 13 | 263 | 8.0 | 20.9 | 0.48 | 0.81 | 0.81 | 97 | 1007.7 |
| 20260507005739 | 13 | 159 | 8.0 | 20.9 | 0.48 | 0.81 | 0.81 | 96 | 1007.7 |
| 20260507005236 | 13 | 214 | 6.4 | 16.1 | 0.51 | 0.81 | 0.81 | 96 | 1007.7 |
| 20260507004738 | 13 | 241 | 8.0 | 24.1 | 0.48 | 0.79 | 0.79 | 96 | 1007.8 |
| 20260507004236 | 13 | 204 | 9.7 | 24.1 | 0.48 | 0.76 | 0.76 | 96 | 1007.7 |
| 20260507003735 | 13 | 184 | 8.0 | 24.1 | 0.43 | 0.71 | 0.71 | 96 | 1007.7 |
| 20260507003237 | 13 | 159 | 8.0 | 19.3 | 0.41 | 0.66 | 0.69 | 96 | 1007.8 |
| 20260507002734 | 12 | 150 | 9.7 | 19.3 | 0.33 | 0.58 | 0.58 | 96 | 1007.9 |
| 20260507002233 | 12 | 147 | 9.7 | 20.9 | 0.28 | 0.51 | 0.51 | 96 | 1007.7 |
| 20260507001735 | 12 | 170 | 8.0 | 20.9 | 0.25 | 0.43 | 0.43 | 96 | 1007.6 |
| 20260507001232 | 12 | 189 | 8.0 | 22.5 | 0.25 | 0.38 | 0.38 | 96 | 1007.7 |
| 20260507000731 | 12 | 176 | 9.7 | 22.5 | 0.23 | 0.33 | 0.36 | 96 | 1007.7 |
| 20260507000234 | 12 | 171 | 8.0 | 22.5 | 0.23 | 0.33 | 0.33 | 95 | 1007.6 |
| 20260506235732 | 12 | 186 | 9.7 | 22.5 | 0.25 | 0.33 | 0.33 | 95 | 1007.8 |
| 20260506235231 | 12 | 141 | 9.7 | 22.5 | 0.28 | 0.30 | 0.30 | 95 | 1007.9 |
| 20260506234729 | 12 | 145 | 9.7 | 22.5 | 0.30 | 0.30 | 0.30 | 95 | 1007.9 |
| 20260506234229 | 12 | 132 | 9.7 | 22.5 | 0.28 | 0.28 | 0.28 | 95 | 1007.9 |
| 20260506233727 | 12 | 163 | 9.7 | 25.7 | 0.28 | 0.28 | 0.28 | 95 | 1007.9 |
| 20260506233225 | 12 | 146 | 11.3 | 25.7 | 0.25 | 0.25 | 0.25 | 94 | 1007.9 |
| 20260506232727 | 12 | 150 | 9.7 | 19.3 | 0.25 | 0.25 | 0.25 | 94 | 1008.2 |
| 20260506232227 | 13 | 278 | 9.7 | 20.9 | 0.23 | 0.23 | 0.23 | 94 | 1008.3 |
| 20260506231726 | 13 | 137 | 9.7 | 20.9 | 0.18 | 0.18 | 0.20 | 94 | 1008.3 |
| 20260506231227 | 13 | 176 | 9.7 | 27.4 | 0.13 | 0.13 | 0.13 | 93 | 1008.2 |
| 20260506230724 | 13 | 160 | 11.3 | 35.4 | 0.10 | 0.10 | 0.10 | 93 | 1008.3 |
| 20260506230223 | 13 | 198 | 9.7 | 35.4 | 0.10 | 0.10 | 0.10 | 92 | 1008.3 |
| 20260506225722 | 13 | 201 | 9.7 | 22.5 | 0.08 | 0.08 | 0.08 | 92 | 1008.3 |
| 20260506225222 | 13 | 239 | 9.7 | 22.5 | 0.03 | 0.03 | 0.05 | 90 | 1008.3 |
| 20260506224721 | 13 | 168 | 9.7 | 27.4 | 0.00 | 0.00 | 0.00 | 90 | 1008.5 |
| 20260506224223 | 13 | 222 | 9.7 | 27.4 | 0.00 | 0.00 | 0.00 | 90 | 1008.4 |
| 20260506223719 | 13 | 150 | 9.7 | 20.9 | 0.00 | 0.00 | 0.00 | 89 | 1008.3 |
| 20260506223220 | 14 | 240 | 8.0 | 20.9 | 0.00 | 0.00 | 0.00 | 89 | 1008.2 |
| 20260506222720 | 14 | 235 | 8.0 | 17.7 | 0.00 | 0.00 | 0.00 | 89 | 1008.3 |
| 20260506222219 | 14 | 156 | 8.0 | 20.9 | 0.00 | 0.00 | 0.00 | 89 | 1008.4 |
| 20260506221717 | 13 | 211 | 9.7 | 22.5 | 0.00 | 0.00 | 0.00 | 89 | 1008.3 |
| 20260506221218 | 13 | 144 | 9.7 | 22.5 | 0.00 | 0.00 | 0.00 | 88 | 1008.4 |
| 20260506220717 | 14 | 167 | 9.7 | 20.9 | 0.00 | 0.00 | 0.00 | 88 | 1008.6 |
| 20260506220219 | 14 | 155 | 9.7 | 22.5 | 0.00 | 0.00 | 0.00 | 88 | 1008.6 |
| 20260506215720 | 14 | 146 | 9.7 | 22.5 | 0.00 | 0.00 | 0.00 | 88 | 1008.5 |
| 20260506215217 | 14 | 198 | 9.7 | 22.5 | 0.00 | 0.00 | 0.00 | 89 | 1008.6 |
| 20260506214719 | 14 | 207 | 9.7 | 22.5 | 0.00 | 0.00 | 0.00 | 89 | 1008.6 |
| 20260506214205 | 14 | 205 | 9.7 | 19.3 | 0.00 | 0.00 | 0.00 | 88 | 1008.7 |
| 20260506213704 | 14 | 146 | 9.7 | 22.5 | 0.00 | 0.00 | 0.00 | 88 | 1008.8 |
| 20260506213202 | 14 | 147 | 9.7 | 24.1 | 0.00 | 0.00 | 0.00 | 87 | 1008.8 |
| 20260506212703 | 14 | 191 | 9.7 | 24.1 | 0.00 | 0.00 | 0.00 | 87 | 1008.8 |
| 20260506212201 | 14 | 155 | 9.7 | 19.3 | 0.00 | 0.00 | 0.00 | 87 | 1008.7 |
| 20260506211702 | 14 | 285 | 9.7 | 20.9 | 0.00 | 0.00 | 0.00 | 87 | 1008.7 |
| 20260506211159 | 14 | 164 | 8.0 | 20.9 | 0.00 | 0.00 | 0.00 | 87 | 1008.8 |
| 20260506210659 | 14 | 190 | 9.7 | 27.4 | 0.00 | 0.00 | 0.00 | 87 | 1008.7 |
| 20260506210201 | 14 | 150 | 9.7 | 27.4 | 0.00 | 0.00 | 0.00 | 87 | 1008.7 |
| 20260506205659 | 14 | 222 | 9.7 | 20.9 | 0.00 | 0.00 | 0.00 | 87 | 1008.8 |
| 20260506205201 | 14 | 175 | 9.7 | 29.0 | 0.00 | 0.00 | 0.00 | 87 | 1008.9 |
| 20260506204658 | 14 | 189 | 11.3 | 29.0 | 0.00 | 0.00 | 0.00 | 86 | 1009.0 |
| 20260506204159 | 15 | 211 | 11.3 | 24.1 | 0.00 | 0.00 | 0.00 | 86 | 1009.1 |
| 20260506203658 | 15 | 217 | 11.3 | 24.1 | 0.00 | 0.00 | 0.00 | 86 | 1009.1 |
| 20260506203159 | 15 | 190 | 9.7 | 29.0 | 0.00 | 0.00 | 0.00 | 85 | 1009.4 |
| 20260506202702 | 15 | 188 | 9.7 | 29.0 | 0.00 | 0.00 | 0.00 | 86 | 1009.4 |
| 20260506202153 | 15 | 128 | 9.7 | 22.5 | 0.00 | 0.00 | 0.00 | 86 | 1009.4 |
| 20260506201651 | 15 | 175 | 9.7 | 19.3 | 0.00 | 0.00 | 0.00 | 85 | 1009.3 |
| 20260506201152 | 15 | 161 | 8.0 | 16.1 | 0.00 | 0.00 | 0.00 | 85 | 1009.4 |
| 20260506200652 | 15 | 240 | 8.0 | 19.3 | 0.00 | 0.00 | 0.00 | 84 | 1009.5 |
| 20260506200151 | 15 | 153 | 9.7 | 19.3 | 0.00 | 0.00 | 0.00 | 84 | 1009.6 |
| 20260506195650 | 15 | 150 | 9.7 | 24.1 | 0.00 | 0.00 | 0.00 | 85 | 1009.7 |
| 20260506195152 | 15 | 173 | 11.3 | 24.1 | 0.00 | 0.00 | 0.00 | 85 | 1009.6 |
| 20260506194649 | 15 | 155 | 11.3 | 24.1 | 0.00 | 0.00 | 0.00 | 85 | 1009.6 |
| 20260506194149 | 15 | 213 | 11.3 | 24.1 | 0.00 | 0.00 | 0.00 | 85 | 1009.6 |
| 20260506193646 | 15 | 173 | 9.7 | 29.0 | 0.00 | 0.00 | 0.00 | 85 | 1009.5 |
| 20260506193146 | 15 | 144 | 11.3 | 29.0 | 0.00 | 0.00 | 0.00 | 85 | 1009.6 |
| 20260506192646 | 15 | 196 | 9.7 | 24.1 | 0.00 | 0.00 | 0.00 | 85 | 1009.5 |
| 20260506192146 | 15 | 216 | 9.7 | 27.4 | 0.00 | 0.00 | 0.00 | 85 | 1009.6 |
| 20260506191645 | 15 | 120 | 11.3 | 27.4 | 0.00 | 0.00 | 0.00 | 84 | 1009.6 |
| 20260506191146 | 15 | 145 | 11.3 | 22.5 | 0.00 | 0.00 | 0.00 | 84 | 1009.7 |
| 20260506190644 | 15 | 148 | 9.7 | 22.5 | 0.00 | 0.00 | 0.00 | 84 | 1009.8 |
| 20260506190143 | 15 | 159 | 9.7 | 19.3 | 0.00 | 0.00 | 0.00 | 84 | 1009.8 |
| 20260506185642 | 15 | 186 | 9.7 | 25.7 | 0.00 | 0.00 | 0.00 | 84 | 1010.0 |
| 20260506185143 | 15 | 123 | 8.0 | 25.7 | 0.00 | 0.00 | 0.00 | 84 | 1010.2 |
| 20260506184641 | 15 | 146 | 9.7 | 24.1 | 0.00 | 0.00 | 0.00 | 84 | 1010.2 |
| 20260506184140 | 15 | 171 | 8.0 | 24.1 | 0.00 | 0.00 | 0.00 | 83 | 1010.5 |
| 20260506183642 | 15 | 162 | 9.7 | 22.5 | 0.00 | 0.00 | 0.00 | 83 | 1010.4 |
| 20260506183143 | 15 | 163 | 9.7 | 22.5 | 0.00 | 0.00 | 0.00 | 83 | 1010.6 |
| 20260506182643 | 16 | 145 | 9.7 | 25.7 | 0.00 | 0.00 | 0.00 | 82 | 1010.7 |
| 20260506182112 | 16 | 153 | 12.9 | 33.8 | 0.00 | 0.00 | 0.00 | 81 | 1010.8 |
| 20260506181610 | 16 | 180 | 12.9 | 33.8 | 0.00 | 0.00 | 0.00 | 80 | 1011.0 |
| 20260506181110 | 17 | 180 | 11.3 | 27.4 | 0.00 | 0.00 | 0.00 | 79 | 1011.1 |
| 20260506180609 | 17 | 163 | 9.7 | 29.0 | 0.00 | 0.00 | 0.00 | 79 | 1011.0 |
| 20260506180108 | 17 | 165 | 9.7 | 29.0 | 0.00 | 0.00 | 0.00 | 80 | 1011.1 |
| 20260506175608 | 16 | 219 | 9.7 | 24.1 | 0.00 | 0.00 | 0.00 | 81 | 1010.9 |
| 20260506175106 | 16 | 143 | 11.3 | 24.1 | 0.00 | 0.00 | 0.00 | 82 | 1010.9 |
| 20260506174606 | 16 | 192 | 11.3 | 24.1 | 0.00 | 0.00 | 0.00 | 81 | 1011.1 |
| 20260506174106 | 16 | 157 | 9.7 | 22.5 | 0.00 | 0.00 | 0.00 | 81 | 1010.7 |
| 20260506173607 | 16 | 223 | 9.7 | 20.9 | 0.00 | 0.00 | 0.00 | 82 | 1011.0 |
| 20260506173118 | 16 | 173 | 11.3 | 22.5 | 0.00 | 0.00 | 0.00 | 83 | 1010.9 |
| 20260506172604 | 16 | 235 | 11.3 | 22.5 | 0.00 | 0.00 | 0.00 | 83 | 1011.0 |
| 20260506172103 | 16 | 163 | 9.7 | 24.1 | 0.00 | 0.00 | 0.00 | 83 | 1011.3 |
| 20260506171604 | 16 | 166 | 9.7 | 29.0 | 0.00 | 0.00 | 0.00 | 83 | 1011.1 |
| 20260506171103 | 15 | 149 | 9.7 | 29.0 | 0.00 | 0.00 | 0.00 | 84 | 1011.3 |
| 20260506170603 | 15 | 140 | 11.3 | 22.5 | 0.00 | 0.00 | 0.00 | 83 | 1011.4 |
| 20260506170105 | 15 | 131 | 11.3 | 22.5 | 0.00 | 0.00 | 0.00 | 84 | 1011.5 |
| 20260506165602 | 16 | 202 | 9.7 | 22.5 | 0.00 | 0.00 | 0.00 | 83 | 1011.5 |
| 20260506165059 | 16 | 166 | 9.7 | 19.3 | 0.00 | 0.00 | 0.00 | 83 | 1011.6 |
| 20260506164601 | 16 | 208 | 9.7 | 19.3 | 0.00 | 0.00 | 0.00 | 82 | 1011.9 |
| 20260506164058 | 16 | 211 | 11.3 | 22.5 | 0.00 | 0.00 | 0.00 | 82 | 1011.8 |
| 20260506163557 | 16 | 158 | 11.3 | 22.5 | 0.00 | 0.00 | 0.00 | 81 | 1011.9 |
| 20260506163057 | 16 | 192 | 11.3 | 29.0 | 0.00 | 0.00 | 0.00 | 80 | 1011.9 |
| 20260506162556 | 17 | 267 | 11.3 | 29.0 | 0.00 | 0.00 | 0.00 | 80 | 1011.9 |
| 20260506162054 | 17 | 197 | 11.3 | 24.1 | 0.00 | 0.00 | 0.00 | 81 | 1011.8 |
| 20260506161556 | 17 | 163 | 11.3 | 24.1 | 0.00 | 0.00 | 0.00 | 82 | 1012.1 |
| 20260506161053 | 16 | 168 | 11.3 | 32.2 | 0.00 | 0.00 | 0.00 | 82 | 1012.0 |
| 20260506160553 | 16 | 109 | 12.9 | 32.2 | 0.00 | 0.00 | 0.00 | 81 | 1012.2 |
| 20260506160054 | 17 | 229 | 11.3 | 29.0 | 0.00 | 0.00 | 0.00 | 80 | 1012.3 |
| 20260506155552 | 17 | 178 | 11.3 | 25.7 | 0.00 | 0.00 | 0.00 | 80 | 1012.4 |
| 20260506155052 | 17 | 145 | 9.7 | 25.7 | 0.00 | 0.00 | 0.00 | 81 | 1012.5 |
| 20260506154550 | 17 | 211 | 11.3 | 20.9 | 0.00 | 0.00 | 0.00 | 80 | 1012.6 |
| 20260506154051 | 16 | 194 | 11.3 | 20.9 | 0.00 | 0.00 | 0.00 | 81 | 1012.7 |
| 20260506153550 | 16 | 168 | 11.3 | 22.5 | 0.00 | 0.00 | 0.00 | 82 | 1012.6 |
| 20260506153050 | 16 | 167 | 11.3 | 25.7 | 0.00 | 0.00 | 0.00 | 81 | 1012.6 |
| 20260506152549 | 16 | 197 | 11.3 | 25.7 | 0.00 | 0.00 | 0.00 | 82 | 1012.6 |
| 20260506152049 | 16 | 174 | 11.3 | 24.1 | 0.00 | 0.00 | 0.00 | 83 | 1012.5 |
| 20260506151548 | 15 | 144 | 11.3 | 27.4 | 0.00 | 0.00 | 0.00 | 84 | 1012.7 |
| 20260506151049 | 15 | 192 | 9.7 | 27.4 | 0.00 | 0.00 | 0.00 | 83 | 1012.6 |
| 20260506150547 | 16 | 232 | 9.7 | 25.7 | 0.00 | 0.00 | 0.00 | 83 | 1012.6 |
| 20260506150045 | 16 | 119 | 11.3 | 24.1 | 0.00 | 0.00 | 0.00 | 83 | 1012.4 |
| 20260506145544 | 15 | 165 | 9.7 | 24.1 | 0.00 | 0.00 | 0.00 | 82 | 1012.5 |
| 20260506145045 | 16 | 186 | 9.7 | 22.5 | 0.00 | 0.00 | 0.00 | 84 | 1012.5 |
| 20260506144543 | 15 | 175 | 11.3 | 24.1 | 0.00 | 0.00 | 0.00 | 83 | 1012.3 |
| 20260506144044 | 16 | 233 | 11.3 | 25.7 | 0.00 | 0.00 | 0.00 | 82 | 1012.4 |
| 20260506143542 | 16 | 174 | 11.3 | 25.7 | 0.00 | 0.00 | 0.00 | 82 | 1012.5 |
| 20260506143041 | 16 | 143 | 11.3 | 24.1 | 0.00 | 0.00 | 0.00 | 81 | 1012.6 |
| 20260506142542 | 16 | 167 | 11.3 | 24.1 | 0.00 | 0.00 | 0.00 | 82 | 1012.7 |
| 20260506142039 | 16 | 239 | 11.3 | 24.1 | 0.00 | 0.00 | 0.00 | 81 | 1012.7 |
| 20260506141538 | 16 | 165 | 11.3 | 24.1 | 0.00 | 0.00 | 0.00 | 81 | 1012.8 |
| 20260506141039 | 16 | 146 | 9.7 | 24.1 | 0.00 | 0.00 | 0.00 | 81 | 1012.8 |
| 20260506140538 | 16 | 220 | 9.7 | 22.5 | 0.00 | 0.00 | 0.00 | 82 | 1012.8 |
| 20260506140038 | 16 | 157 | 11.3 | 22.5 | 0.00 | 0.00 | 0.00 | 83 | 1012.9 |
| 20260506135536 | 16 | 150 | 9.7 | 20.9 | 0.00 | 0.00 | 0.00 | 83 | 1012.9 |
| 20260506135036 | 16 | 170 | 11.3 | 22.5 | 0.00 | 0.00 | 0.00 | 83 | 1012.6 |
| 20260506134537 | 15 | 199 | 11.3 | 25.7 | 0.00 | 0.00 | 0.00 | 84 | 1012.6 |
| 20260506134035 | 15 | 159 | 11.3 | 25.7 | 0.00 | 0.00 | 0.00 | 84 | 1012.4 |
| 20260506133534 | 15 | 160 | 12.9 | 29.0 | 0.00 | 0.00 | 0.00 | 84 | 1012.6 |
| 20260506133034 | 15 | 194 | 11.3 | 29.0 | 0.00 | 0.00 | 0.00 | 84 | 1012.6 |
| 20260506132533 | 15 | 167 | 11.3 | 22.5 | 0.00 | 0.00 | 0.00 | 83 | 1012.5 |
| 20260506132032 | 15 | 153 | 9.7 | 22.5 | 0.00 | 0.00 | 0.00 | 84 | 1012.4 |
| 20260506131532 | 15 | 160 | 9.7 | 22.5 | 0.00 | 0.00 | 0.00 | 85 | 1012.4 |
| 20260506131032 | 15 | 89 | 9.7 | 22.5 | 0.00 | 0.00 | 0.00 | 85 | 1012.6 |
| 20260506130532 | 15 | 171 | 9.7 | 24.1 | 0.00 | 0.00 | 0.00 | 85 | 1012.6 |
| 20260506130031 | 15 | 243 | 9.7 | 24.1 | 0.00 | 0.00 | 0.00 | 85 | 1012.7 |
| 20260506125528 | 15 | 214 | 9.7 | 22.5 | 0.00 | 0.00 | 0.00 | 85 | 1012.7 |
| 20260506125029 | 15 | 165 | 11.3 | 24.1 | 0.00 | 0.00 | 0.00 | 86 | 1012.6 |
| 20260506124528 | 15 | 159 | 11.3 | 24.1 | 0.00 | 0.00 | 0.00 | 86 | 1012.6 |
| 20260506124027 | 15 | 173 | 11.3 | 24.1 | 0.00 | 0.00 | 0.00 | 86 | 1012.5 |
| 20260506123529 | 15 | 153 | 8.0 | 17.7 | 0.00 | 0.00 | 0.00 | 86 | 1012.6 |
| 20260506123028 | 15 | 152 | 8.0 | 20.9 | 0.00 | 0.00 | 0.00 | 87 | 1012.5 |
| 20260506122528 | 14 | 161 | 9.7 | 20.9 | 0.00 | 0.00 | 0.00 | 88 | 1012.8 |
| 20260506122024 | 14 | 188 | 9.7 | 20.9 | 0.00 | 0.00 | 0.00 | 88 | 1013.0 |
| 20260506121524 | 14 | 150 | 9.7 | 20.9 | 0.00 | 0.00 | 0.00 | 88 | 1013.0 |
| 20260506121024 | 14 | 209 | 9.7 | 19.3 | 0.00 | 0.00 | 0.00 | 88 | 1012.9 |
| 20260506120524 | 14 | 107 | 9.7 | 17.7 | 0.00 | 0.00 | 0.00 | 88 | 1013.0 |
| 20260506120022 | 14 | 200 | 8.0 | 22.5 | 0.00 | 0.00 | 0.00 | 88 | 1012.9 |
| 20260506115522 | 14 | 194 | 8.0 | 22.5 | 0.00 | 0.00 | 0.00 | 87 | 1012.9 |
| 20260506115020 | 14 | 174 | 8.0 | 22.5 | 0.00 | 0.00 | 0.00 | 87 | 1013.1 |
| 20260506114521 | 14 | 161 | 8.0 | 25.7 | 0.00 | 0.00 | 0.00 | 88 | 1012.9 |
| 20260506114021 | 14 | 172 | 9.7 | 25.7 | 0.00 | 0.00 | 0.00 | 88 | 1013.0 |
| 20260506113518 | 14 | 257 | 8.0 | 22.5 | 0.00 | 0.00 | 0.00 | 88 | 1012.9 |
| 20260506113019 | 14 | 190 | 8.0 | 20.9 | 0.00 | 0.00 | 0.00 | 89 | 1012.9 |
| 20260506112522 | 14 | 158 | 9.7 | 32.2 | 0.00 | 0.00 | 0.00 | 89 | 1012.9 |
| 20260506112017 | 14 | 182 | 8.0 | 32.2 | 0.00 | 0.00 | 0.00 | 89 | 1012.9 |
| 20260506111516 | 14 | 243 | 8.0 | 20.9 | 0.00 | 0.00 | 0.00 | 90 | 1013.0 |
| 20260506111019 | 13 | 151 | 8.0 | 20.9 | 0.00 | 0.00 | 0.00 | 90 | 1012.9 |
| 20260506110515 | 13 | 169 | 8.0 | 19.3 | 0.00 | 0.00 | 0.00 | 90 | 1012.8 |
| 20260506110016 | 13 | 144 | 8.0 | 22.5 | 0.00 | 0.00 | 0.00 | 90 | 1012.9 |
| 20260506105515 | 13 | 181 | 8.0 | 22.5 | 0.00 | 0.00 | 0.00 | 90 | 1012.8 |
| 20260506105015 | 13 | 243 | 8.0 | 19.3 | 0.00 | 0.00 | 0.00 | 91 | 1012.9 |
| 20260506104515 | 13 | 154 | 8.0 | 17.7 | 0.00 | 0.00 | 0.00 | 91 | 1012.8 |
| 20260506104004 | 13 | 255 | 8.0 | 17.7 | 0.00 | 0.00 | 0.00 | 91 | 1012.8 |
| 20260506103503 | 13 | 163 | 6.4 | 16.1 | 0.00 | 0.00 | 0.00 | 91 | 1012.8 |
| 20260506103001 | 13 | 227 | 6.4 | 14.5 | 0.00 | 0.00 | 0.00 | 92 | 1012.8 |
| 20260506102501 | 13 | 157 | 8.0 | 17.7 | 0.00 | 0.00 | 0.00 | 92 | 1012.7 |
| 20260506102000 | 13 | 178 | 8.0 | 17.7 | 0.00 | 0.00 | 0.00 | 92 | 1012.9 |
| 20260506101500 | 13 | 161 | 8.0 | 22.5 | 0.00 | 0.00 | 0.00 | 92 | 1013.0 |
| 20260506101000 | 13 | 167 | 8.0 | 22.5 | 0.00 | 0.00 | 0.00 | 92 | 1012.9 |
| 20260506100500 | 13 | 188 | 8.0 | 19.3 | 0.00 | 0.00 | 0.00 | 92 | 1012.8 |
| 20260506095958 | 13 | 152 | 6.4 | 16.1 | 0.00 | 0.00 | 0.00 | 92 | 1012.7 |
| 20260506095456 | 13 | 186 | 6.4 | 17.7 | 0.00 | 0.00 | 0.00 | 92 | 1012.8 |
| 20260506094958 | 13 | 183 | 4.8 | 17.7 | 0.00 | 0.00 | 0.00 | 92 | 1012.9 |
| 20260506094457 | 13 | 165 | 6.4 | 16.1 | 0.00 | 0.00 | 0.00 | 92 | 1012.9 |
| 20260506093958 | 13 | 209 | 4.8 | 16.1 | 0.00 | 0.00 | 0.00 | 92 | 1013.0 |
| 20260506093458 | 13 | 156 | 4.8 | 12.9 | 0.00 | 0.00 | 0.00 | 92 | 1013.0 |
| 20260506092958 | 13 | 196 | 6.4 | 19.3 | 0.00 | 0.00 | 0.00 | 92 | 1013.0 |
| 20260506092456 | 13 | 155 | 6.4 | 19.3 | 0.00 | 0.00 | 0.00 | 92 | 1012.8 |
| 20260506091957 | 13 | 187 | 6.4 | 19.3 | 0.00 | 0.00 | 0.00 | 92 | 1012.8 |
| 20260506091456 | 13 | 150 | 8.0 | 19.3 | 0.00 | 0.00 | 0.00 | 92 | 1012.8 |
| 20260506090955 | 13 | 155 | 6.4 | 22.5 | 0.00 | 0.00 | 0.00 | 92 | 1012.8 |
| 20260506090454 | 13 | 228 | 6.4 | 22.5 | 0.00 | 0.00 | 0.00 | 91 | 1012.9 |
| 20260506085957 | 13 | 355 | 8.0 | 17.7 | 0.00 | 0.00 | 0.00 | 91 | 1012.9 |
| 20260506085457 | 13 | 202 | 6.4 | 17.7 | 0.00 | 0.00 | 0.00 | 91 | 1012.9 |
| 20260506084938 | 13 | 168 | 6.4 | 24.1 | 0.00 | 0.00 | 0.00 | 91 | 1013.0 |
| 20260506084439 | 13 | 158 | 8.0 | 24.1 | 0.00 | 0.00 | 0.00 | 91 | 1012.9 |
| 20260506083940 | 13 | 165 | 8.0 | 20.9 | 0.00 | 0.00 | 0.00 | 91 | 1012.8 |
| 20260506083439 | 13 | 226 | 8.0 | 20.9 | 0.00 | 0.00 | 0.00 | 91 | 1012.9 |
| 20260506082937 | 13 | 134 | 8.0 | 19.3 | 0.00 | 0.00 | 0.00 | 91 | 1012.9 |
| 20260506082438 | 13 | 188 | 8.0 | 24.1 | 0.00 | 0.00 | 0.00 | 91 | 1012.9 |